sat.trackr.live / text

‹ back to catalog

STARLINK-35194

NORAD 65671 · 2025-211V

PAYLOAD ACTIVE UNKNOWN

§ Identity

Operator
Country
US
Launch date
2025-09-19
Launch site
AFWTR
Launch vehicle
Mass (kg)
RCS (m²)

Purposes: comms

External: N2YO · Heavens-Above · Gunter

§ Orbital elements

Epoch: 2026-09-20T14:16:11.388864Z

Period
93.91 min
Inclination
97.2852°
Eccentricity
0.0000809
Mean motion
15.33453998 rev/d
Perigee alt
465.0 km
Apogee alt
466.1 km
Semi-major
6,843.7 km
B*
3.5133e-4
RAAN
303.7637°
Arg perigee
77.2155°
Mean anomaly
282.9178°
Rev number
5,653

§ Raw data

STARLINK-351941 65671U 25211V   26263.59457626  .00011287  00000+0  35133-3 0  99952 65671  97.2852 303.7637 0000809  77.2155 282.9178 15.33453998 56539

JSON: /api/v1/satellites/65671 · /tle

For live sub-satellite position, see the globe view (requires WebGL).

§ Visibility from observer

Set your observer location to see the next 7 days of passes ≥ 10°. The values pass through the URL so the page stays shareable.

No JS? Fill the form by hand. The geolocation button needs JavaScript.